星链-33856 (STARLINK-33856)

导读

STARLINK-33856是美国SpaceX星链卫星互联网项目的卫星,于2025年4月25日发射升空。该卫星属于星链低轨星座组网卫星,运行于近地轨道,旨在为全球范围内提供高速低延迟互联网覆盖服务,服务偏远地区网络接入、移动场景联网等场景,是美国星链大规模星座部署中的一颗组网卫星。

基本信息
目录编号:
63638
目录名称:
STARLINK-33856
国际标识:
2025-083E
轨道中心:
EARTH
卫星名称:
星链-33856
卫星全名:
星链-33856 (STARLINK-33856)
卫星状态:
在轨 (已飞行498 天)
发射日期:
2025-04-25 UTC
国别 :
美国 (US)
星等 :
--
轨道信息
数据来源 国际轨道数据
星历时间: 2026-09-05T03:32:01+0800
16小时前
查看轨道信息
半长轴: 6861.179km
偏心率: 0.0001549
轨道倾角: 43.003°
近地点辐角 271.514°
升交点赤经 73.433°
平近点角 88.554°
近地点: 481.979km
远地点: 484.105km
周期: 94.267分钟
每日圈数: 15.275826
详细信息
固有亮度:
5
最大亮度:
2.5
卫星平台:
Starlink V1.0
覆盖范围:
全球
运营商:
太空探索技术公司
运营商所在国:
美国
制造商(研发单位):
太空探索技术公司
制造商所在国:
美国
使用方式:
暂无
卫星简介
Starlink 计划是 SpaceX 推出的全球卫星互联网项目,通过发射低轨道卫星,为全球尤其是偏远地区提供高速、低延迟的互联网服务。自 2019 年起,Starlink 已部署数千颗卫星,旨在缩小全球数字鸿沟,推动互联网普及。该项目还为军事、航空等行业提供通信支持,带来广泛经济效益。
2D轨道图
3D轨道图
轨道高度分析图
轨道倾角分析图
轨道综合分析图
查看轨道综合分析图
交会数据列表
事件ID 空间交会对象 最接近时刻(TCA) 交会距离 交会风险概率(CRP) 交会风险指数(CRI) 操作
CDM_260907-150906-363806-742621
2026-09-07T
15:09:41+0000
0.440 km
远距离
2.080485E-4 高风险 0.81
CDM_260907-133506-363806-742621
2026-09-07T
13:35:32+0000
2.584 km
极远距离
1.26277E-6 低风险 0.37